Location: Borgo
(42.3939°N, 9.2791°E)
Time: 04:36:13
(UTC+00:00)

Cosmos 2034 Rocket - Pass Details

Date: 27 February 2020
Orbit: 959 x 1000 km, 82.9° (Epoch: 02 April)

Event Time Altitude Azimuth Distance (km) Brightness Sun altitude
Rises 18:24:36 0° 176° (S) 3,634 6.9 -14.6°
Reaches altitude 10° 18:27:06 10° 173° (S) 2,688 6.2 -15.1°
Maximum altitude 18:33:10 65° 93° (E) 1,051 3.9 -16.2°
Drops below altitude 10° 18:39:15 10° 13° (NNE) 2,701 6.2 -17.3°
Sets 18:41:46 0° 11° (N) 3,653 6.9 -17.8°
